| time (UTC) | temp F | wind direction | speed MPH | gust MPH | rain 1hr in | rain 24hr in | rain mn in | humidity % | barometer mb |
| 20260906224538 | 70 | 235 | 1.0 | 4.0 | 0.00 | 0.00 | 0.00 | 61 | 1013.8 |
| 20260906223036 | 70 | 217 | 1.0 | 2.0 | 0.00 | 0.00 | 0.00 | 61 | 1013.7 |
| 20260906221516 | 70 | 140 | 1.0 | 3.0 | 0.00 | 0.00 | 0.00 | 62 | 1013.7 |
| 20260906220015 | 70 | 96 | 1.0 | 2.0 | 0.00 | 0.00 | 0.00 | 58 | 1013.7 |
| 20260906214557 | 70 | 131 | 0.0 | 3.0 | 0.00 | 0.00 | 0.00 | 55 | 1013.6 |
| 20260906213058 | 70 | 128 | 2.0 | 4.0 | 0.00 | 0.00 | 0.00 | 58 | 1013.6 |
| 20260906211537 | 70 | 126 | 2.0 | 4.0 | 0.00 | 0.00 | 0.00 | 59 | 1013.5 |
| 20260906210038 | 70 | 117 | 3.0 | 7.0 | 0.00 | 0.00 | 0.00 | 58 | 1013.4 |
| 20260906204520 | 69 | 118 | 4.0 | 7.0 | 0.00 | 0.00 | 0.00 | 62 | 1013.4 |
| 20260906203013 | 69 | 123 | 3.0 | 7.0 | 0.00 | 0.00 | 0.00 | 64 | 1013.4 |
| 20260906201620 | 68 | 121 | 1.0 | 7.0 | 0.00 | 0.00 | 0.00 | 68 | 1013.5 |
| 20260906200054 | 67 | 129 | 4.0 | 9.0 | 0.00 | 0.00 | 0.00 | 70 | 1013.4 |
| 20260906194542 | 68 | 120 | 8.0 | 11.0 | 0.00 | 0.00 | 0.00 | 68 | 1013.3 |
| 20260906193041 | 68 | 139 | 4.0 | 7.0 | 0.00 | 0.00 | 0.00 | 64 | 1013.3 |
| 20260906191522 | 67 | 136 | 6.0 | 10.0 | 0.00 | 0.00 | 0.00 | 66 | 1013.4 |
| 20260906190028 | 68 | 138 | 4.0 | 9.0 | 0.00 | 0.00 | 0.00 | 64 | 1013.4 |
| 20260906184517 | 67 | 108 | 7.0 | 8.0 | 0.00 | 0.00 | 0.00 | 66 | 1013.5 |
| 20260906183017 | 66 | 115 | 4.0 | 7.0 | 0.00 | 0.00 | 0.00 | 70 | 1013.8 |
| 20260906181534 | 65 | 145 | 3.0 | 9.0 | 0.00 | 0.00 | 0.00 | 73 | 1013.9 |
| 20260906180013 | 66 | 124 | 4.0 | 13.0 | 0.00 | 0.00 | 0.00 | 71 | 1014.0 |
| 20260906163047 | 65 | 38 | 1.0 | 6.0 | 0.00 | 0.00 | 0.00 | 72 | 1014.8 |
| 20260906161544 | 65 | 57 | 2.0 | 6.0 | 0.00 | 0.00 | 0.00 | 73 | 1014.7 |
| 20260906160035 | 64 | 32 | 6.0 | 10.0 | 0.00 | 0.00 | 0.00 | 73 | 1015.0 |
| 20260906154540 | 63 | 315 | 2.0 | 9.0 | 0.00 | 0.00 | 0.00 | 76 | 1015.2 |
| 20260906153035 | 63 | 349 | 5.0 | 9.0 | 0.00 | 0.00 | 0.00 | 75 | 1015.3 |
| 20260906151536 | 63 | 32 | 3.0 | 7.0 | 0.00 | 0.00 | 0.00 | 75 | 1015.5 |
| 20260906150034 | 62 | 21 | 2.0 | 9.0 | 0.00 | 0.00 | 0.00 | 74 | 1015.6 |
| 20260906144537 | 62 | 64 | 3.0 | 6.0 | 0.00 | 0.00 | 0.00 | 72 | 1015.4 |
| 20260906143019 | 62 | 17 | 5.0 | 8.0 | 0.00 | 0.00 | 0.00 | 73 | 1015.5 |
| 20260906141519 | 61 | 44 | 4.0 | 8.0 | 0.00 | 0.00 | 0.00 | 75 | 1015.6 |
| 20260906140020 | 61 | 51 | 5.0 | 11.0 | 0.00 | 0.00 | 0.00 | 76 | 1015.7 |
| 20260906134516 | 60 | 32 | 6.0 | 10.0 | 0.00 | 0.00 | 0.00 | 77 | 1015.6 |
| 20260906133015 | 60 | 42 | 6.0 | 9.0 | 0.00 | 0.00 | 0.00 | 80 | 1015.5 |
| 20260906131515 | 60 | 49 | 3.0 | 7.0 | 0.00 | 0.00 | 0.00 | 80 | 1015.5 |
| 20260906130016 | 60 | 56 | 4.0 | 8.0 | 0.00 | 0.00 | 0.00 | 81 | 1015.5 |
| 20260906124516 | 60 | 51 | 5.0 | 8.0 | 0.00 | 0.00 | 0.00 | 81 | 1015.3 |
| 20260906123113 | 59 | 38 | 6.0 | 11.0 | 0.00 | 0.00 | 0.00 | 81 | 1015.3 |
| 20260906121600 | 59 | 51 | 7.0 | 14.0 | 0.00 | 0.00 | 0.00 | 82 | 1015.3 |
| 20260906120052 | 60 | 36 | 7.0 | 10.0 | 0.00 | 0.00 | 0.00 | 84 | 1015.2 |
| 20260906114536 | 59 | 25 | 5.0 | 9.0 | 0.00 | 0.00 | 0.00 | 86 | 1014.9 |
| 20260906113030 | 58 | 24 | 5.0 | 8.0 | 0.00 | 0.00 | 0.00 | 88 | 1014.6 |
| 20260906111527 | 58 | 23 | 5.0 | 8.0 | 0.00 | 0.00 | 0.00 | 89 | 1014.5 |
| 20260906110027 | 58 | 38 | 4.0 | 7.0 | 0.00 | 0.00 | 0.00 | 89 | 1014.4 |
| 20260906104526 | 58 | 9 | 4.0 | 6.0 | 0.00 | 0.00 | 0.00 | 89 | 1014.3 |
| 20260906103021 | 58 | 342 | 5.0 | 7.0 | 0.00 | 0.00 | 0.00 | 89 | 1014.1 |
| 20260906101520 | 58 | 355 | 5.0 | 8.0 | 0.00 | 0.00 | 0.00 | 89 | 1013.9 |
| 20260906100019 | 58 | 344 | 3.0 | 5.0 | 0.00 | 0.00 | 0.00 | 89 | 1013.8 |
| 20260906094505 | 58 | 355 | 3.0 | 5.0 | 0.00 | 0.00 | 0.00 | 90 | 1013.7 |
| 20260906093011 | 58 | 19 | 3.0 | 5.0 | 0.00 | 0.00 | 0.00 | 90 | 1013.6 |
| 20260906091504 | 58 | 32 | 4.0 | 6.0 | 0.00 | 0.00 | 0.00 | 89 | 1013.6 |
| 20260906090001 | 59 | 46 | 4.0 | 5.0 | 0.00 | 0.00 | 0.00 | 89 | 1013.5 |
| 20260906084610 | 59 | 32 | 5.0 | 8.0 | 0.00 | 0.00 | 0.00 | 89 | 1014.0 |
| 20260906083057 | 60 | 11 | 6.0 | 9.0 | 0.00 | 0.00 | 0.00 | 88 | 1013.7 |
| 20260906081556 | 60 | 341 | 3.0 | 7.0 | 0.00 | 0.00 | 0.00 | 86 | 1013.4 |
| 20260906080054 | 62 | 360 | 3.0 | 6.0 | 0.00 | 0.00 | 0.00 | 80 | 1013.5 |
| 20260906074533 | 62 | 59 | 2.0 | 4.0 | 0.00 | 0.00 | 0.00 | 79 | 1013.2 |
| 20260906073046 | 62 | 107 | 2.0 | 5.0 | 0.00 | 0.00 | 0.00 | 78 | 1013.2 |
| 20260906071529 | 62 | 90 | 1.0 | 4.0 | 0.00 | 0.00 | 0.00 | 78 | 1013.2 |
| 20260906070037 | 62 | 107 | 2.0 | 8.0 | 0.00 | 0.00 | 0.00 | 77 | 1013.1 |
| 20260906064527 | 62 | 80 | 3.0 | 8.0 | 0.00 | 0.00 | 0.00 | 80 | 1013.0 |
| 20260906063027 | 62 | 96 | 6.0 | 11.0 | 0.00 | 0.00 | 0.00 | 78 | 1012.9 |
| 20260906061525 | 62 | 84 | 7.0 | 12.0 | 0.00 | 0.00 | 0.00 | 81 | 1013.1 |
| 20260906060025 | 62 | 105 | 4.0 | 6.0 | 0.00 | 0.00 | 0.00 | 91 | 1012.8 |
| 20260906054504 | 62 | 56 | 1.0 | 3.0 | 0.00 | 0.00 | 0.00 | 92 | 1012.8 |
| 20260906053002 | 63 | 9 | 1.0 | 3.0 | 0.00 | 0.00 | 0.00 | 92 | 1013.0 |
| 20260906051549 | 63 | 332 | 1.0 | 3.0 | 0.00 | 0.00 | 0.00 | 92 | 1013.0 |
| 20260906050149 | 63 | 311 | 2.0 | 5.0 | 0.00 | 0.00 | 0.00 | 91 | 1013.0 |
| 20260906044547 | 63 | 337 | 2.0 | 6.0 | 0.00 | 0.00 | 0.00 | 91 | 1012.8 |
| 20260906043103 | 63 | 319 | 3.0 | 5.0 | 0.00 | 0.00 | 0.00 | 91 | 1012.8 |
| 20260906041546 | 63 | 321 | 3.0 | 6.0 | 0.00 | 0.00 | 0.00 | 91 | 1012.8 |
| 20260906040105 | 63 | 305 | 5.0 | 7.0 | 0.00 | 0.00 | 0.00 | 91 | 1012.8 |
| 20260906034544 | 63 | 306 | 4.0 | 6.0 | 0.00 | 0.00 | 0.00 | 90 | 1012.8 |
| 20260906033049 | 63 | 315 | 3.0 | 4.0 | 0.00 | 0.00 | 0.00 | 90 | 1012.6 |
| 20260906031531 | 63 | 321 | 3.0 | 5.0 | 0.00 | 0.00 | 0.00 | 90 | 1012.6 |
| 20260906030031 | 63 | 337 | 2.0 | 4.0 | 0.00 | 0.00 | 0.00 | 90 | 1012.6 |
| 20260906024535 | 63 | 321 | 2.0 | 4.0 | 0.00 | 0.00 | 0.00 | 90 | 1012.5 |
| 20260906023032 | 63 | 312 | 3.0 | 5.0 | 0.00 | 0.00 | 0.00 | 90 | 1012.6 |
| 20260906021530 | 63 | 332 | 3.0 | 4.0 | 0.00 | 0.00 | 0.00 | 90 | 1012.5 |
| 20260906020030 | 63 | 304 | 0.0 | 0.0 | 0.00 | 0.00 | 0.00 | 90 | 1012.6 |
| 20260906014541 | 63 | 313 | 0.0 | 3.0 | 0.00 | 0.00 | 0.00 | 89 | 1012.6 |
| 20260906013031 | 63 | 321 | 1.0 | 2.0 | 0.00 | 0.00 | 0.00 | 89 | 1012.6 |
| 20260906011509 | 63 | 319 | 0.0 | 2.0 | 0.00 | 0.00 | 0.00 | 88 | 1012.5 |
| 20260906010008 | 63 | 319 | 0.0 | 2.0 | 0.00 | 0.00 | 0.00 | 88 | 1012.4 |
| 20260906004549 | 63 | 319 | 0.0 | 2.0 | 0.00 | 0.00 | 0.00 | 88 | 1012.4 |
| 20260906003051 | 63 | 319 | 1.0 | 2.0 | 0.00 | 0.00 | 0.00 | 88 | 1012.2 |
| 20260906001543 | 63 | 331 | 1.0 | 2.0 | 0.00 | 0.00 | 0.00 | 87 | 1012.1 |
| 20260906000043 | 64 | 333 | 1.0 | 2.0 | 0.00 | 0.00 | 0.00 | 86 | 1012.0 |
| 20260905234552 | 64 | 38 | 0.0 | 1.0 | 0.00 | 0.00 | 0.00 | 87 | 1012.0 |
| 20260905233042 | 64 | 38 | 1.0 | 2.0 | 0.00 | 0.00 | 0.00 | 87 | 1011.9 |
| 20260905231543 | 64 | 38 | 1.0 | 2.0 | 0.00 | 0.00 | 0.00 | 85 | 1012.0 |
| 20260905230043 | 64 | 38 | 0.0 | 2.0 | 0.00 | 0.00 | 0.00 | 84 | 1011.8 |